Regional Weather Roundup
Issued by NWS Upton, NY

Current Version | Previous Version | Graphics & Text | Print | Product List | Glossary Off
Versions: 1 2 3 4 5 6 7 8 9 10 11 12 13 14 15 16 17 18 19 20 21 22 23 24 25 26 27 28 29 30 31 32 33 34 35 36 37 38 39 40 41 42 43 44 45 46 47 48 49 50
988 ASUS41 KOKX 022104 RWROKX REGIONAL WEATHER ROUNDUP NATIONAL WEATHER SERVICE NEW YORK NY 500 PM EDT MON MAY 02 2016 NOTE: "FAIR" INDICATES FEW OR NO CLOUDS BELOW 12,000 FEET WITH NO SIGNIFICANT WEATHER AND/OR OBSTRUCTIONS TO VISIBILITY. NYZ071-072-176-178-NJZ106-104-022200- NEW YORK CITY METRO AREA CITY SKY/WX TMP DP RH WIND PRES REMARKS CENTRAL PARK CLOUDY 58 49 72 CALM 29.91S HAZE LAGUARDIA APRT CLOUDY 60 50 69 W7 29.89S KENNEDY INTL PTSUNNY 56 50 80 SW6 29.91S NEWARK/LIBERTY CLOUDY 59 50 72 SW6 29.90S BRNX BOT. GARD N/A 57 48 72 SW12 29.90R TETERBORO CLOUDY 58 49 72 SW7 29.88S HAZE $$ NYZ177-179-078>081-022200- LONG ISLAND NEW YORK CITY SKY/WX TMP DP RH WIND PRES REMARKS FARMINGDALE PTSUNNY 58 50 75 VRB6 29.90R ISLIP PTSUNNY 57 49 74 SW8 29.89F SHIRLEY PTSUNNY 58 50 75 S8 29.89F RIVERHEAD N/A 54 52 94 NE3 29.88F WESTHAMPTON CLOUDY 53 48 83 SW8 29.90F EAST HAMPTON FAIR 55 49 80 SW6 29.89S MONTAUK POINT N/A 55 50 83 VRB3 29.90F $$ NYZ052-065-067-022200- HUDSON VALLEY CITY SKY/WX TMP DP RH WIND PRES REMARKS WHITE PLAINS PTSUNNY 57 51 80 W6 29.88S FOG NEWBURGH CLOUDY 57 54 88 NW7 29.89S MONTGOMERY CLOUDY 58 52 80 CALM 29.88S POUGHKEEPSIE PTSUNNY 57 50 77 CALM 29.88F ALBANY CLOUDY 51 48 89 VRB3 29.89F $$ NJZ001-105-106-008-010-013-015-019>022-104-022200- NEW JERSEY CITY SKY/WX TMP DP RH WIND PRES REMARKS NEWARK/LIBERTY CLOUDY 59 50 72 SW6 29.90S TETERBORO CLOUDY 58 49 72 SW7 29.88S HAZE CALDWELL CLOUDY 57 50 77 VRB3 29.89F MORRISTOWN CLOUDY 57 54 88 SW9 29.90S FOG SOMERVILLE CLOUDY 58 52 80 VRB3 29.88S SUSSEX PTSUNNY 63 53 70 VRB3 29.89R ANDOVER N/A 61 53 75 SW6 29.89S TRENTON CLOUDY 61 54 77 W6 29.89S MILLVILLE SUNNY 69 58 67 NW5 29.90S ATLANTIC CITY MOSUNNY 69 59 70 W6 29.89F WRIGHTSTOWN CLOUDY 60 55 85 W6 29.89R TOMS RIVER CLOUDY 61 54 77 NW5 29.91S BELMAR CLOUDY 60 55 83 W7 29.91S $$ PAZ047>061-062-071-022200- EASTERN PENNSYLVANIA CITY SKY/WX TMP DP RH WIND PRES REMARKS PHILADELPHIA PTSUNNY 63 54 72 S6 29.92R ALLENTOWN CLOUDY 60 53 77 W5 29.90S SCRANTON CLOUDY 61 52 72 VRB5 29.91R $$ CTZ002-004>006-009-010-012-RIZ004-006-007-MAZ004-011-015-022200- SOUTHERN NEW ENGLAND IN CT CITY SKY/WX TMP DP RH WIND PRES REMARKS BRADLEY INTL CLOUDY 50 47 89 S6 29.88S HARTFORD CLOUDY 54 49 83 CALM 29.89S DANBURY CLOUDY 54 49 83 W7 29.90S HAZE WTRBRY/OXFORD CLOUDY 52 48 87 VRB2 29.90F FOG BRIDGEPORT CLOUDY 54 49 83 SW5 29.90S MERIDEN CLOUDY 55 50 83 CALM 29.89S NEW HAVEN CLOUDY 52 49 89 CALM 29.89F CHESTER CLOUDY 54 50 87 VRB5 29.89S GROTON CLOUDY 52 52 100 SW8 29.88F WILLIMANTIC CLOUDY 54 49 83 SW7 29.88F IN RI CITY SKY/WX TMP DP RH WIND PRES REMARKS PROVIDENCE CLOUDY 57 51 80 W10 29.87F BLOCK ISLAND CLOUDY 53 49 86 W8 29.89F WESTERLY CLOUDY 54 48 80 SW7 29.89S IN MA CITY SKY/WX TMP DP RH WIND PRES REMARKS BOSTON CLOUDY 50 47 89 VRB5 29.87F FOG WORCESTER CLOUDY 48 47 96 W7 29.87S FOG WESTFIELD CLOUDY 49 46 90 S3 29.88S PROVINCETOWN CLOUDY 52 50 93 S7 29.85S NANTUCKET FOG 51 48 89 SW12 29.86F VSB 1/2 $$ ANZ330-335-338-340-345-350-353-355-022200- COASTAL MARINE OBSERVATIONS STATION/POSITION TIME SKY/WX TEMP WIND PRES VSBY WAVE AIR SEA DIR/SP/G HT/PER (UTC) (F) (DEG/KT/KT) (MB) (MI) (FT/S) NY HARB ENTRANCE 1950 51 53 130/ 2/ 4 1012.5 3/ 7 20S FIRE ISLAND 1950 49 49 350/ 2/ 4 1012.6 5/ 7 GREAT SOUTH BAY 2000 50 57 220/ 4/ 6 N/A 23 SSW MONTAUK P 2050 49 50 210/ 4/ 6 1011.5 4/ 9 15 E BARNEGAT LI 2022 53 N/A 5/10 HUDSON CANYON 1950 51 49 1012.3 4/ 9 KINGS POINT 2000 56 54 1011.8 EXECUTION ROCKS NOT AVBL CENTRAL LI SOUND NOT AVBL EASTERN LI SOUND 2000 51 48 230/ 4/ 4 N/A ROBBINS REEF 2006 52 150/ 5/ 6 1011.6 $$ >>>>>>>>>>>>>>>>>>>>>>>>>>>> KEY <<<<<<<<<<<<<<<<<<<<<<<<<<< > < > SKY/WX - SKY CONDITION/PRESENT WEATHER < > TMP - TEMPERATURE IN FAHRENHEIT < > DP - DEWPOINT IN FAHRENHEIT < > RH - RELATIVE HUMIDITY IN PERCENT < > WIND - DIRECTION AND SPEED IN MPH < > PRES - MEAN SEA LEVEL PRESSURE IN INCHES OF HG < > WCI - WIND CHILL INDEX < > VSB - VISIBILITY IN MILES < > HX - HEAT INDEX < > TC - TEMPERATURE IN CELSIUS < > VRB - VARIABLE WIND DIRECTION < > < >>>>>>>>>>>>>>>>>>>>>>>>>>>> KEY <<<<<<<<<<<<<<<<<<<<<<<<<<<

USA.gov is the U.S. government's official web portal to all federal, state and local government web resources and services.